#timestamp,LO_Frequency,Hit,StdDev 
1649376015.0,286047004.4,N
1649376015.9,286047004.4,N
1649376035.8,286047005.7,N
1649376055.6,286047005.3,N
1649376075.4,286047002.3,N
1649376095.3,286047001.2,N
1649376115.1,286046997.7,N
1649376135.9,286046990.3,Y
1649376155.7,286046991.1,P
1649376175.5,286046994.3,N
1649376195.4,286046994.8,N
1649376215.2,286046993.8,N
1649376235.0,286046992.7,N
1649376235.9,286046992.7,N
1649376255.8,286046990.1,Y
1649376275.6,286047002.3,P
1649376295.5,286046999.7,N
1649376315.3,286046998.6,N
1649376335.1,286047000.7,N
1649376355.9,286047002.9,N
1649376375.7,286047009.0,Y
1649376395.6,286047007.0,P
1649376415.4,286047003.2,N
1649376435.2,286047003.6,N
1649376455.1,286047000.7,N
1649376456.0,286047000.7,N
1649376475.8,286046997.5,N
1649376495.6,286046997.9,N
1649376515.5,286046999.1,N
1649376535.3,286046998.9,N
1649376555.2,286046998.2,N
1649376575.9,286047000.2,N
1649376595.7,286047001.7,N
1649376615.6,286047003.1,N
1649376635.4,286047003.2,N
1649376655.3,286047005.4,N
1649376675.1,286046998.1,N
1649376676.0,286046998.1,N
1649376695.8,286047001.1,N
1649376715.7,286047002.5,N
1649376735.5,286047001.0,N
1649376755.3,286046996.7,N
1649376775.2,286047001.1,N
1649376795.0,286047000.5,N
1649376795.9,286047000.5,N
1649376815.8,286047000.0,N
1649376835.6,286047002.4,N
1649376855.4,286047000.2,N
1649376875.3,286047003.4,N
1649376895.1,286047005.4,N
1649376915.8,286047006.6,N
1649376935.7,286047006.3,N
1649376955.5,286047002.9,N
1649376975.4,286047005.9,N
1649376995.2,286047002.2,N
1649377015.0,286047002.7,N
1649377015.9,286047002.7,N
1649377035.8,286047001.1,N
1649377055.6,286047001.0,N
1649377075.4,286046998.5,N
1649377095.3,286047000.9,N
1649377115.1,286046999.4,N
1649377135.9,286047000.7,N
1649377155.7,286047002.8,N
1649377175.5,286047002.4,N
1649377195.4,286047002.4,N
1649377215.2,286047000.7,N
1649377235.0,286047000.0,N
1649377235.9,286047000.0,N
1649377255.8,286047002.4,N
1649377275.6,286047000.0,N
1649377295.5,286047001.3,N
1649377315.3,286047003.5,N
1649377335.1,286047007.2,Y
1649377355.9,286047003.1,P
1649377375.7,286047005.5,P
1649377395.5,286047006.5,P
1649377415.4,286047006.5,Y
1649377435.2,286047001.9,P
1649377455.1,286047000.3,N
1649377456.0,286047000.3,N
1649377475.8,286046999.3,N
1649377495.6,286046993.8,Y
1649377515.5,286046990.6,P
1649377535.3,286046990.2,N
1649377555.2,286046994.6,N
1649377575.9,286046997.8,N
1649377595.7,286046998.8,N
1649377615.6,286046997.2,N
1649377635.4,286046992.0,N
1649377655.2,286046994.2,N
1649377675.1,286046994.8,N
1649377676.0,286046994.8,N
1649377695.8,286046994.7,N
1649377715.7,286046995.2,N
1649377735.5,286046998.7,N
1649377755.3,286046999.6,N
1649377775.2,286046993.1,N
1649377795.0,286046996.3,N
1649377795.9,286046996.3,N
1649377815.7,286046996.7,N
1649377835.6,286046993.4,N
1649377855.4,286046993.4,N
1649377875.3,286046993.7,N
1649377895.1,286046995.8,N
1649377896.0,286046995.8,N
1649377915.8,286046992.0,Y
1649377935.7,286046998.2,P
1649377955.5,286047002.5,N
1649377975.3,286047002.3,N
1649377995.2,286047003.9,N
1649378015.0,286047003.6,N
1649378015.9,286047003.6,N
1649378035.8,286047004.1,N
1649378055.6,286047005.9,N
1649378075.4,286047003.4,N
1649378095.3,286047007.6,N
1649378115.1,286047003.2,N
1649378135.8,286047003.8,N
1649378155.7,286047002.9,N
1649378175.5,286047004.7,N
1649378195.4,286047006.5,N
1649378215.2,286047008.8,Y
1649378235.0,286047002.2,P
1649378235.9,286047002.2,P
1649378255.8,286047004.0,P
1649378275.6,286047004.3,Y
1649378295.5,286047001.8,P
1649378315.3,286047000.3,N
1649378335.1,286046996.5,P
1649378355.9,286046992.8,N
1649378375.7,286046988.1,Y
1649378395.5,286046986.8,P
1649378415.4,286046985.3,N
1649378435.2,286046991.1,N
1649378455.1,286046990.2,N
1649378456.0,286046990.2,N
1649378475.8,286046992.5,N
1649378495.6,286046994.1,N
1649378515.5,286046997.8,N
1649378535.3,286046996.6,N
1649378555.1,286046997.4,N
1649378575.9,286046997.4,N
1649378595.7,286046998.6,N
1649378615.6,286046997.4,N
1649378635.4,286046996.6,N
1649378655.2,286047000.9,N
1649378675.1,286046998.2,N
1649378676.0,286046998.2,N
1649378695.8,286046999.2,N
1649378715.6,286046999.0,N
1649378735.5,286046995.8,N
1649378755.3,286046996.4,N
1649378775.2,286046993.0,N
1649378795.0,286046990.2,N
1649378795.9,286046990.2,N
1649378815.7,286046990.3,N
1649378835.6,286046994.3,N
1649378855.4,286046996.1,N
1649378875.3,286046997.9,N
1649378895.1,286046995.9,N
1649378896.0,286046995.9,N
1649378915.8,286046995.3,N
1649378935.7,286046993.7,N
1649378955.5,286046996.9,N
1649378975.3,286046999.9,N
1649378995.2,286047000.7,N
1649379015.0,286047001.6,N
1649379015.9,286047001.6,N
1649379035.8,286047001.4,N
1649379055.6,286047001.9,N
1649379075.4,286047002.1,N
1649379095.3,286047003.1,N
1649379115.1,286046998.7,N
1649379135.9,286047001.2,N
1649379155.7,286046999.4,N
1649379175.5,286046997.4,N
1649379195.4,286046999.0,N
1649379215.2,286046996.4,N
1649379235.0,286046991.6,N
1649379235.9,286046991.6,N
1649379255.8,286046989.1,N
1649379275.6,286046991.5,N
1649379295.5,286046992.5,N
1649379315.3,286046995.4,N
1649379335.1,286046993.4,N
1649379355.9,286046995.5,N
1649379375.7,286046997.9,N
1649379395.5,286046997.3,N
1649379415.4,286046999.2,N
1649379435.2,286046998.5,N
1649379455.1,286047001.9,N
1649379456.0,286047001.9,N
1649379475.8,286047000.3,N
1649379495.6,286047003.9,N
1649379515.5,286047005.5,N
1649379535.3,286047003.3,N
1649379555.2,286047000.1,N
1649379575.9,286047002.1,N
1649379595.7,286047002.8,N
